View from above orbital plane
|
View from above satellite
|
Ground track
|
The orbit data is extracted from the following two-line orbital elements,
1 05118U 71028B 21065.85897324 .00001495 00000-0 76704-4 0 9990
2 05118 81.2560 34.9095 0047703 45.9041 314.6097 15.14879994709545
Epoch (UTC): | 06 March 2021 20:36:55 |
Eccentricity: | 0.0047703 |
inclination: | 81.2560° |
perigee height: | 488 km |
apogee height: | 554 km |
right ascension of ascending node: | 34.9095° |
argument of perigee: | 45.9041° |
revolutions per day: | 15.14879994 |
mean anomaly at epoch: | 314.6097° |
orbit number at epoch: | 70954 |
The dashed part of the orbit path shows where the satellite is in the earth's shadow,
|
|